Погода в Пеледуе

Россия / Республика Саха (Якутия)     59°37′54″N   112°45′05″E
темп.,
°C
ветер,
м/с
пор.,
м/с
влажн.,
%
обл.,
%
осадки,
мм/ч
давл.,
гПа
погр.,
м
3 марта, ср
ср300:00−28ссв229899 0.0 101929
03:00−30с129899 0.0 102019
06:00−29с1198100 0.1 102131
09:00−30с1298100 0.1 102242
12:00−26ссв1189100 0.1 1022419
15:00−24с1283100 0.1 1022792
18:00−25ссв2390100 0.1 1024542
21:00−29с2297100 0.1 102722
4 марта, чт
чт400:00−32с129895 0.0 103019
03:00−34сз119989 0.0 103219
06:00−35з1110097 0.0 103519
09:00−36з119894 0.0 103819
12:00−30зюз238970 0.0 1038381
15:00−26зюз358885 0.0 1038615
18:00−26юз2590100 0.0 1039603
21:00−31ююз239575 0.0 104120
5 марта, пт
пт500:00−33ююз23980 0.0 104222
03:00−33ююз22970 0.0 104219
06:00−34ююз229418 0.0 104119
09:00−33ю229238 0.0 104036
12:00−25ююз258592 0.0 1037297
15:00−20ююз377892 0.0 1033457
18:00−19ююз2983100 0.0 1030449
21:00−21ююв1290100 0.0 102926
6 марта, сб
сб600:00−21ююв129496 0.0 102749
03:00−20ююв139998 0.6 1025152
06:00−20ю1399100 0.4 1023140
09:00−19ю1598100 0.9 1022167
12:00−14ю2593100 0.2 1019316
15:00−10ююз4992100 0.3 1016538
18:00−9ююз41093100 0.7 1015690
21:00−10ююз31095100 1.2 1015465
7 марта, вс
вс700:00−10ююз31295100 0.5 1014456
03:00−7зюз51095100 1.2 1015639
06:00−10зюз41095100 0.3 1016404
09:00−14ююз3998100 0.3 1018210
12:00−8ююз489299 0.1 1016570
15:00−6ю3689100 0.3 1012694
18:00−6ю2696100 0.7 1010540
21:00−8ю1597100 1.6 1010257